Location: Howard City Library
(37.4684°N, 96.2639°W)
Time: 17:09:41
(UTC+00:00)

Cosmos 1707 Rocket - Visible Passes

Search period start: 14 July 2020 00:00
Search period end: 24 July 2020 00:00
Orbit: 606 x 631 km, 82.5° (Epoch: 14 July)

Date Brightness Start Highest point End Pass type
(mag) Time Alt. Az. Time Alt. Az. Time Alt. Az.
14 Jul 5.4 05:58:20 10° NNE 06:00:48 25° NE 06:00:48 25° NE visible
14 Jul 6.0 07:36:47 10° NW 07:37:55 14° NW 07:37:55 14° NW visible
15 Jul 5.1 06:15:07 10° N 06:17:42 33° NNE 06:17:42 33° NNE visible
16 Jul 5.2 06:32:13 10° NNW 06:34:36 31° NNW 06:34:36 31° NNW visible
17 Jul 5.9 05:12:41 10° NNE 05:14:24 16° NE 05:14:24 16° NE visible
17 Jul 5.6 06:49:37 10° NNW 06:51:32 22° NW 06:51:32 22° NW visible
18 Jul 5.4 05:29:00 10° NNE 05:31:20 25° NE 05:31:20 25° NE visible
18 Jul 6.1 07:07:32 10° NW 07:08:28 14° NW 07:08:28 14° NW visible
19 Jul 5.2 05:45:47 10° N 05:48:17 32° NNE 05:48:17 32° NNE visible
20 Jul 5.3 06:02:53 10° NNW 06:05:14 30° NNW 06:05:14 30° NNW visible
21 Jul 5.8 04:43:18 10° NNE 04:45:04 16° NE 04:45:04 16° NE visible
21 Jul 5.7 06:20:20 10° NNW 06:22:12 22° NW 06:22:12 22° NW visible
22 Jul 5.3 04:59:39 10° NNE 05:02:03 25° NE 05:02:03 25° NE visible
22 Jul 6.2 06:38:16 10° NW 06:39:11 13° NW 06:39:11 13° NW visible
23 Jul 5.0 05:16:27 10° N 05:19:03 34° N 05:19:03 34° N visible
